EHI
0 0 0 0 0 0 0 0 0 0 0 0 0 0 0 0 0 0 0 0 0 0 0 0 0 0 0 0 0 0 0 0 0 0 0 0 0 0 0 0 0 0 0 0 0 0 0 0 0
0 0 0 0 0 0 0 0 0 0 0 0 0 0 0 0 0 0 0 0 0 0 0 0 0 0 0 0 0 0 0 0 0 0 0 0 0 0 0 0 0 0 0 0 0 0 0 0 0
0 0 0 0 0 0 0 0 0 0 0 0 0 0 0 0 0 0 0 0 0 0 0 0 0 0 0 0 0 0 0 0 0 0 0 0 0 0 0 0 0 0 0 0 0 0 0 0 0
0 0 0 0 0 0 0 0 0 0 0 0 0 0 0 0 0 0 0 0 0 0 0 0 0 0 0 0 0 0 0 0 0 0 0 0 0 0 0 0 0 0 0 0 0 0 0 0 0
0 0 0 0 0 0 0 0 0 0 0 0 0 0 0 0 0 0 0 0 0 0 0 0 0 0 0 0 0 0 0 0 0 0 0 0 0 0 0 0 0 0 0 0 0 0 0 0 0
0 0 0 0 0 0 0 0 0 0 0 0 0 0 0 0 0 0 0 0 0 0 0 0 0 0 0 0 0 0 0 0 0 0 0 0 0 0 0 0 0 0 0 0 0 0 0 0 0
0 0 0 0 0 0 0 0 0 0 0 0 0 0 0 0 0 0 0 0 0 0 0 0 0 0 0 0 0 0 0 0 0 0 0 0 0 0 0 0 0 0 0 0 0 0 0 0 0
0 0 0 0 0 0 0 0 0 0 0 0 0 0 0 0 0 0 0 0 0 0 0 0 0 0 0 0 0 0 0 0 0 0 0 0 0 0 0 0 0 0 0 0 0 0 0 0 0
0 0 0 0 0 0 0 0 0 0 0 0 0 0 0 0 0 0 0 0 0 0 0 0 0 0 0 0 0 0 0 0 0 0 0 0 0 0 0 0 0 0 0 0 0 0 0 0 0
0 0 0 0 0 0 0 0 0 0 0 0 0 0 0 0 0 0 0 0 0 0 0 0 0 0 0 0 0 0 0 0 0 0 0 0 0 0 0 0 0 0 0 0 0 0 0 0 0
0 0 0 0 0 0 0 0 0 0 0 0 0 0 0 0 0 0 0 0 0 0 0 0 0 0 0 0 0 0 0 0 0 0 0 0 0 0 0 0 0 0 0 0 0 0 0 0 0
0 0 0 0 0 0 0 0 0 0 0 0 0 0 0 0 0 0 0 0 0 0 0 0 0 0 0 0 0 0 0 0 0 0 0 0 0 0 0 0 0 0 0 0 0 0 0 0 0
0 0 0 0 0 0 0 0 0 0 0 0 0 0 0 0 0 0 0 0 0 0 0 0 0 0 0 0 0 0 0 0 0 0 0 0 0 0 0 0 0 0 0 0 0 0 0 0 0
0 0 0 0 0 0 0 0 0 0 0 0 0 0 0 0 0 0 0 0 0 0 0 0 0 0 0 0 0 0 0 0 0 0 0 0 0 0 0 0 0 0 0 0 0 0 0 0 0
0 0 0 0 0 0 0 0 0 0 0 0 0 0 0 0 0 0 0 0 0 0 0 0 0 0 0 0 0 0 0 0 0 0 0 0 0 0 0 0 0 0 0 0 0 0 0 0 0
0 0 0 0 0 0 0 0 0 0 0 0 0 0 0 0 0 0 0 0 0 0 0 0 0 0 0 0 0 0 0 0 0 0 0 0 0 0 0 0 0 0 0 0 0 0 0 0 0
0 0 0 0 0 0 0 0 0 0 0 0 0 0 0 0 0 0 0 0 0 0 0 0 0 0 0 0 0 0 0 0 0 0 0 0 0 0 0 0 0 0 0 0 0 0 0 0 0
0 0 0 0 0 0 0 0 0 0 0 0 0 0 0 0 0 0 0 0 0 0 0 0 0 0 0 0 0 0 0 0 0 0 0 0 0 0 0 0 0 0 0 0 0 0 0 0 0
0 0 0 0 0 0 0 0 0 0 0 0 0 0 0 0 0 0 0 0 0 0 0 0 0 0 0 0 0 0 0 0 0 0 0 0 0 0 0 0 0 0 0 0 0 0 0 0 0
0 0 0 0 0 0 0 0 0 0 0 0 0 0 0 0 0 0 0 0 0 0 0 0 0 0 0 0 0 0 0 0 0 0 0 0 0 0 0 0 0 0 0 0 0 0 0 0 0
0 0 0 0 0 0 0 0 0 0 0 0 0 0 0 0 0 0 0 0 0 0 0 0 0 0 0 0 0 0 0 0 0 0 0 0 0 0 0 0 0 0 0 0 0 0 0 0 0
0 0 0 0 0 0 0 0 0 0 0 0 0 0 0 0 0 0 0 0 0 0 0 0 0 0 0 0 0 0 0 0 0 0 0 0 0 0 0 0 0 0 0 0 0 0 0 0 0
0 0 0 0 0 0 0 0 0 0 0 0 0 0 0 0 0 0 0 0 0 0 0 0 0 0 0 0 0 0 0 0 0 0 0 0 0 0 0 0 0 0 0 0 0 0 0 0 0
0 0 0 0 0 0 0 0 0 0 0 0 0 0 0 0 0 0 0 0 0 0 0 0 0 0 0 0 0 0 0 0 0 0 0 0 0 0 0 0 0 0 0 0 0 0 0 0 0
0 0 0 0 0 0 0 0 0 0 0 0 0 0 0 0 0 0 0 0 0 0 0 0 0 0 0 0 0 0 0 0 0 0 0 0 0 0 0 0 0 0 0 0 0 0 0 0 0
0 0 0 0 0 0 0 0 0 0 0 0 0 0 0 0 0 0 0 0 0 0 0 0 0 0 0 0 0 0 0 0 0 0 0 0 0 0 0 0 0 0 0 0 0 0 0 0 0
0 0 0 0 0 0 0 0 0 0 0 0 0 0 0 0 0 0 0 0 0 0 0 0 0 0 0 0 0 0 0 0 0 0 0 0 0 0 0 0 0 0 0 0 0 0 0 0 0
0 0 0 0 0 0 0 0 0 0 0 0 0 0 0 0 0 0 0 0 0 0 0 0 0 0 0 0 0 0 0 0 0 0 0 0 0 0 0 0 0 0 0 0 0 0 0 0 0
0 0 0 0 0 0 0 0 0 0 0 0 0 0 0 0 0 0 0 0 0 0 0 0 0 0 0 0 0 0 0 0 0 0 0 0 0 0 0 0 0 0 0 0 0 0 0 0 0
0 0 0 0 0 0 0 0 0 0 0 0 0 0 0 0 0 0 0 0 0 0 0 0 0 0 0 0 0 0 0 0 0 0 0 0 0 0 0 0 0 0 0 0 0 0 0 0 0
Wind_Speed
5 3 2 4 6 5 2 3 3 3 2 1 2 5 5 3 3 3 2 10 10 13 12 15 18 16 15 14 13 13 12 12 12 11 10 10 10 11 11 11 11 11 11 11 12 12 12 12 12
2 2 4 5 6 2 3 2 4 4 4 2 2 4 4 1 1 4 4 9 14 14 11 12 18 17 16 15 14 13 12 12 12 10 10 10 10 10 10 10 10 10 10 10 10 11 11 11 10
3 2 4 5 3 4 2 3 4 3 3 3 2 3 4 2 1 4 5 12 13 12 10 13 19 18 16 15 14 13 12 12 11 10 9 9 9 9 9 9 9 9 9 9 9 9 9 9 9
3 5 5 4 1 4 5 5 5 3 1 2 3 4 3 2 2 3 8 13 13 10 10 12 20 18 17 15 14 14 13 12 11 10 9 9 9 9 8 8 8 8 8 8 8 8 8 8 8
4 5 5 2 3 3 3 4 4 4 1 2 3 3 2 6 2 6 10 13 13 11 9 12 19 18 17 16 15 14 13 12 11 10 9 9 8 8 7 7 6 6 6 6 6 6 6 6 6
5 5 4 2 3 2 2 1 4 5 2 2 3 3 1 3 2 6 9 10 12 13 11 11 19 18 17 16 16 15 14 12 11 10 9 9 8 8 7 6 5 5 4 4 4 4 4 4 4
4 4 1 2 2 2 2 1 4 4 3 0 3 4 1 3 3 5 7 8 9 11 10 8 10 12 16 16 16 15 14 12 12 11 10 9 8 7 7 6 5 4 3 2 2 2 2 2 3
5 4 2 2 1 2 5 3 2 2 1 0 4 6 5 5 3 4 6 7 8 8 9 8 7 8 8 9 14 14 13 12 12 11 9 9 8 7 7 6 5 4 3 2 1 1 2 2 3
4 5 1 2 0 1 3 3 4 1 3 3 3 3 4 5 5 6 5 4 6 8 7 8 8 7 7 7 9 11 12 11 10 8 10 8 4 3 3 5 7 6 5 4 4 4 4 4 4
5 2 4 3 2 2 0 1 2 2 3 1 2 2 2 5 5 6 6 8 9 10 9 8 8 8 7 6 5 5 5 5 5 4 5 4 3 3 4 6 9 8 7 6 7 7 6 4 2
3 4 4 3 2 3 1 1 1 1 2 4 4 4 4 4 5 6 7 7 9 10 11 10 9 8 7 5 4 3 3 3 4 5 5 4 3 2 2 2 3 4 4 3 4 4 2 2 2
2 3 3 3 2 2 2 1 1 3 6 4 5 6 5 5 5 6 7 7 7 8 11 10 10 8 8 6 4 4 3 3 3 4 5 4 3 3 2 2 3 2 2 3 3 2 4 4 5
2 3 3 3 3 3 3 3 2 5 6 2 3 5 5 4 3 4 5 6 6 9 10 11 10 9 8 6 5 5 4 4 4 4 4 5 4 4 3 3 3 3 3 3 3 4 5 5 5
3 3 4 5 5 3 4 3 2 8 4 3 4 4 3 2 2 1 2 3 6 8 9 9 10 9 8 6 5 4 4 4 4 4 5 5 4 4 4 3 3 4 4 4 4 5 5 4 4
1 3 7 5 4 3 2 4 6 7 3 4 4 4 3 2 1 0 2 3 5 7 8 9 10 9 9 8 6 5 4 4 3 3 4 5 4 4 4 3 3 4 4 4 3 4 3 4 4
3 2 4 6 1 2 4 7 8 4 6 6 5 4 3 2 1 1 1 2 4 6 7 7 8 8 8 6 5 4 3 3 3 2 3 4 4 4 3 3 3 3 2 2 2 3 3 3 4
3 1 4 6 2 3 4 8 7 3 6 7 6 5 4 3 2 2 2 3 5 6 7 7 7 8 7 6 5 4 3 3 2 2 1 1 2 2 2 2 3 2 2 2 2 2 2 3 4
4 4 4 5 4 3 5 10 9 5 6 8 7 6 6 5 3 2 3 4 5 6 7 7 7 7 6 5 4 3 3 2 2 1 1 1 1 1 1 2 2 2 1 2 2 3 3 3 4
4 4 6 7 5 4 8 11 12 9 6 8 8 8 7 6 3 3 4 5 5 6 6 6 7 5 5 4 3 3 2 1 1 0 0 0 0 0 1 1 1 1 2 3 3 2 3 3 2
5 5 6 7 3 3 7 11 11 9 10 12 13 11 10 7 5 4 4 3 4 5 5 6 6 6 5 4 3 3 2 1 1 0 1 1 1 1 1 1 2 2 2 3 3 2 2 2 1
6 5 6 6 5 4 4 9 7 6 4 6 9 10 10 12 10 7 5 4 4 5 5 6 6 6 5 5 4 4 3 3 2 1 1 2 2 2 1 2 2 2 2 3 3 2 3 3 2
7 6 6 4 1 5 1 7 9 5 3 6 8 9 10 9 8 8 7 5 5 4 5 6 6 6 5 5 5 4 3 2 1 1 1 2 2 2 2 2 2 2 2 3 3 3 2 3 3
8 4 3 1 2 3 3 4 11 3 6 9 10 11 11 10 11 10 8 7 5 5 5 5 6 5 5 5 5 5 3 2 1 0 1 2 2 3 2 2 1 2 2 3 4 4 3 3 4
5 4 4 5 4 4 6 7 10 6 9 8 10 11 11 11 9 9 7 6 5 4 5 5 6 5 4 5 5 5 4 3 1 0 1 2 2 2 3 2 2 2 2 3 4 4 5 4 5
4 5 3 4 2 8 4 5 13 9 8 10 16 16 12 11 11 11 10 8 7 7 6 5 6 5 4 5 4 4 4 3 2 1 1 1 2 2 3 2 2 3 3 4 4 4 5 5 5
6 9 7 5 5 6 3 8 11 6 6 6 10 12 12 12 11 12 12 10 9 8 7 6 6 5 5 4 4 3 3 2 1 2 2 2 2 3 3 3 3 4 4 4 4 4 5 4 5
7 6 7 5 2 4 7 8 10 2 2 3 9 11 14 14 12 12 11 10 9 9 8 8 7 5 5 5 4 3 2 2 2 2 2 2 2 3 3 3 4 4 5 5 5 4 5 5 5
7 7 5 5 4 5 7 6 6 5 4 4 9 14 14 12 11 10 10 10 9 8 7 7 7 6 5 5 4 3 2 2 2 1 2 3 3 3 4 4 5 5 5 5 5 5 6 6 6
6 5 5 5 5 5 4 8 6 6 7 9 11 13 14 14 13 12 10 9 8 7 7 7 6 5 5 4 3 3 2 2 2 2 3 3 3 4 4 5 5 6 6 6 5 6 7 7 7
7 9 9 6 6 5 4 10 6 4 5 7 9 9 10 11 11 10 9 9 8 8 7 7 6 6 5 4 4 3 3 2 2 3 4 4 4 5 5 5 6 6 7 6 7 8 8 8 8
Wind_Direction
341 359 70 56 53 48 329 280 173 137 118 202 128 106 118 135 156 181 196 146 148 152 166 166 163 160 157 151 143 137 131 125 120 115 110 106 100 96 91 86 82 79 75 72 69 66 66 67 65
0 19 56 59 78 61 301 265 132 140 166 162 86 97 99 119 187 139 133 156 150 155 161 161 164 162 159 154 149 143 136 131 126 121 117 114 107 100 94 90 86 82 79 76 73 71 69 68 65
347 56 76 69 99 171 194 214 168 179 167 128 78 76 113 155 179 182 178 149 145 154 156 163 164 164 161 158 156 150 144 139 133 129 125 120 113 106 99 94 90 86 83 80 76 73 71 70 66
49 44 55 71 245 226 190 198 172 127 42 72 105 72 68 341 235 193 141 143 146 153 155 165 166 166 164 162 159 154 150 147 141 139 135 128 120 112 104 99 94 91 87 83 79 76 72 68 66
62 69 56 23 270 260 219 186 140 102 69 359 89 96 24 330 21 121 139 148 152 156 160 167 168 168 166 165 162 158 156 154 150 148 147 139 130 122 116 111 104 97 92 86 80 76 71 65 60
54 63 71 309 287 285 282 265 95 87 75 37 88 104 257 310 124 142 149 156 157 159 162 168 171 170 170 169 166 163 162 162 160 158 158 151 144 139 135 129 122 113 102 92 83 75 67 58 47
94 86 130 273 295 329 314 358 92 110 95 114 127 121 241 269 209 157 146 152 154 159 161 167 171 171 173 172 170 168 167 168 167 166 165 161 157 157 154 151 150 146 137 119 93 67 48 31 18
119 96 28 338 345 333 319 5 58 109 142 284 104 143 205 222 188 121 112 136 148 158 163 164 165 164 168 170 173 172 171 173 174 171 167 166 169 172 171 173 180 183 189 198 226 264 287 305 313
88 75 327 275 143 288 330 23 340 349 63 37 46 162 203 150 131 118 107 118 148 163 168 164 163 163 162 164 176 172 174 176 175 172 170 166 161 165 181 187 202 213 219 231 248 263 274 282 287
88 130 233 236 200 198 250 22 319 25 23 44 53 44 101 127 146 158 163 165 171 176 179 173 169 166 164 170 170 167 167 169 163 160 165 156 161 179 190 209 216 224 231 242 255 265 276 288 291
148 194 234 255 223 185 190 296 327 130 250 218 197 186 172 169 180 193 196 186 184 179 179 179 175 170 167 166 160 161 157 159 162 168 171 168 167 181 194 204 227 232 236 246 269 284 283 264 252
199 243 237 241 221 189 199 229 295 216 228 216 190 172 166 174 191 202 203 202 186 176 184 180 177 171 171 166 164 164 162 167 173 183 181 169 170 185 192 198 209 211 216 225 238 246 254 256 255
228 265 285 256 239 226 216 226 245 254 241 213 156 133 150 166 198 222 216 201 181 179 180 178 176 172 169 164 167 169 172 176 182 182 185 178 178 192 198 207 211 218 218 221 231 238 246 249 252
229 258 287 272 250 235 219 256 240 260 230 173 152 145 147 149 182 206 209 190 182 177 173 170 171 170 164 165 165 168 172 176 178 183 189 185 182 188 195 209 215 222 220 221 224 231 237 242 247
283 320 316 290 237 228 163 290 245 245 163 161 159 150 134 117 87 147 211 186 178 169 159 161 165 161 161 162 164 165 170 170 178 188 191 190 190 195 199 209 219 226 223 224 230 240 240 249 252
20 7 308 297 221 174 147 260 268 236 164 176 175 161 139 113 63 23 54 135 147 145 144 151 155 154 156 154 152 150 154 157 169 177 184 195 200 200 202 215 231 236 230 227 237 245 254 259 260
10 284 269 297 238 181 191 245 262 214 171 183 187 177 158 134 80 49 59 102 123 135 135 132 138 147 148 141 134 130 130 133 140 145 165 196 209 208 202 221 237 238 235 240 250 251 244 264 270
240 245 259 271 269 198 229 252 263 245 201 197 192 182 169 156 151 111 84 92 103 112 118 121 123 132 130 118 107 99 95 97 100 120 167 176 206 219 212 233 249 248 256 268 267 269 265 258 267
214 238 262 261 257 220 241 255 261 250 215 203 197 187 177 170 158 114 97 98 98 101 111 119 121 126 126 120 118 116 116 93 66 37 344 300 287 268 228 253 276 274 261 266 272 276 284 281 280
223 251 270 284 284 234 261 267 262 243 215 198 189 185 177 164 154 134 114 104 110 119 117 117 121 126 127 126 126 125 123 112 103 6 357 340 320 304 271 252 263 266 270 287 287 273 281 280 267
231 227 242 261 308 316 307 297 282 270 221 194 187 179 174 168 164 156 141 132 127 131 136 130 127 123 120 118 106 85 68 50 35 11 339 327 328 317 300 273 262 266 253 267 274 263 250 274 282
240 233 223 239 288 290 321 293 284 262 242 196 187 180 179 170 161 158 154 153 152 151 138 129 126 121 120 119 121 126 133 152 203 230 279 315 333 329 319 302 284 276 269 269 273 264 246 247 273
216 213 199 219 210 290 258 238 279 262 234 219 199 190 183 174 166 164 163 160 153 147 140 133 125 120 121 120 127 127 130 154 168 51 342 333 330 328 325 315 306 294 283 278 279 282 268 243 248
155 78 41 45 72 279 230 195 273 235 219 209 197 193 183 173 166 159 154 147 144 144 140 138 131 127 127 125 128 137 144 148 136 48 319 318 316 318 321 317 309 294 284 278 275 272 272 262 257
116 100 5 330 338 253 222 202 252 250 229 199 191 189 183 172 165 163 162 163 161 161 159 152 144 143 143 136 139 148 153 157 170 202 240 278 297 299 300 307 300 292 284 282 280 279 277 269 264
175 154 175 216 237 278 264 227 253 266 269 214 183 175 172 174 174 172 173 171 169 169 166 161 158 157 158 151 151 151 153 156 185 208 223 245 252 263 278 291 290 289 291 291 287 281 276 273 267
153 194 180 158 253 270 273 278 299 282 348 145 155 164 179 182 180 177 175 174 173 172 173 169 164 163 167 164 158 161 167 177 206 232 239 253 260 269 284 290 290 289 288 286 286 277 277 277 268
157 161 130 159 204 247 274 267 256 267 242 190 179 183 187 183 182 180 179 179 177 173 169 166 166 168 171 170 172 174 190 204 217 237 264 270 274 276 289 290 288 288 287 285 282 278 274 274 271
158 170 172 174 182 185 256 270 233 237 221 205 202 195 188 186 186 184 182 177 170 165 164 167 169 167 172 177 177 179 208 223 233 249 262 267 272 280 283 284 287 287 287 284 280 276 277 274 274
179 185 163 174 224 199 206 268 273 264 231 204 203 196 191 189 185 179 173 167 168 171 171 173 173 173 179 179 179 196 217 232 249 261 266 269 274 278 279 282 284 284 284 281 277 278 280 274 275